Regional Weather Roundup
Issued by NWS Sioux Falls, SD

Home | Current Version | Previous Version | Text Only | Print | Product List | Glossary On
Versions: 1 2 3 4 5 6 7 8 9 10 11 12 13 14 15 16 17 18 19 20 21 22 23 24 25 26 27 28 29 30 31 32 33 34 35 36 37 38 39 40 41 42 43 44 45 46 47 48 49 50
000
ASUS43 KFSD 230210
RWRFSD

WEATHER ROUNDUP FOR SE SOUTH DAKOTA/SW MINNESOTA/NW IOWA
NATIONAL WEATHER SERVICE SIOUX FALLS SD
800 PM CST SUN JAN 22 2017

NOTE: "FAIR" INDICATES FEW OR NO CLOUDS BELOW 12,000 FEET WITH NO
SIGNIFICANT WEATHER AND OR OBSTRUCTIONS TO VISIBILITY.


SDZ038>040-050-052>070-230300-
SOUTHEAST SOUTH DAKOTA

CITY           SKY/WX    TMP DP  RH WIND       PRES   REMARKS
BROOKINGS      CLOUDY    29  27  92 NW13      29.82R WCI  19
CHAMBERLAIN    CLOUDY    31  28  90 NW6       29.90S WCI  25
HURON          CLOUDY    30  27  88 NW14      29.88R WCI  19
MADISON        CLOUDY    28  28 100 NW12        N/A  WCI  18
MITCHELL       CLOUDY    32  28  85 NW10      29.89S WCI  24
SIOUX FALLS    CLOUDY    31  28  89 NW15G22   29.85R WCI  20
WINNER         FAIR      24  21  88 W3        29.90S
YANKTON        MOCLDY    28  25  86 NW15      29.88S WCI  17
$$

MNZ071-072-080-081-089-090-097-098-230300-
SOUTHWEST MINNESOTA

CITY           SKY/WX    TMP DP  RH WIND       PRES   REMARKS
FAIRMONT       MIX PCPN  33  32  96 NW9       29.82R FOG     WCI  25
JACKSON        CLOUDY    30  30 100 W12       29.83R FOG     WCI  21
LUVERNE        CLOUDY    30  27  86 NW12G18   29.85R WCI  21
MARSHALL       CLOUDY    31  29  92 NW14      29.83R WCI  21
MONTEVIDEO     CLOUDY    34  34 100 NW7       29.83S WCI  28
PIPESTONE      CLOUDY    30  28  93 NW13      29.82R WCI  20
REDWOOD FALLS  CLOUDY    33  29  85 W12       29.81R FOG     WCI  24
TRACY          CLOUDY    32  31  95 NW13      29.82S WCI  22
WINDOM         CLOUDY    30  30 100 W13       29.82R FOG     WCI  20
WORTHINGTON    CLOUDY    30  29  96 W15       29.83R WCI  19
$$

IAZ001>003-012>014-020>022-031-032-NEZ013-014-SDZ071-230300-
NORTHWEST IOWA

CITY           SKY/WX    TMP DP  RH WIND       PRES   REMARKS
CHEROKEE       CLOUDY    31  30  97 NW7       29.86S WCI  24
DENISON        CLOUDY    32  30  93 NW8       29.85R WCI  25
ESTHERVILLE    CLOUDY    31  31 100 W12       29.82R FOG     WCI  22
LE MARS        CLOUDY    32  28  86 NW15      29.88S WCI  22
ORANGE CITY    CLOUDY    30  28  93 NW13      29.86R WCI  20
SHELDON        CLOUDY    30  30 100 NW14G21   29.83S FOG     WCI  20
SIOUX CITY     CLEAR     31  28  89 NW10      29.88R WCI  22
SPENCER          N/A    N/A N/A N/A MISG      29.84R
STORM LAKE     CLOUDY    32  30  93 W14G20    29.84R FOG     WCI  22
$$

ABBREVIATIONS USED IN REMARKS
   TC - TEMPERATURE IN CELSIUS
  WCI - WIND CHILL INDEX
   HX - HEAT INDEX
  VSB - VISIBILITY




USA.gov is the U.S. government's official web portal to all federal, state and local government web resources and services.